NOAA 16 DEB, 41245

Orbit data source: Space-Track

NOAA 16 DEB, 41245 is space debris in SSO originally from a launch on Thu, 21 Sep 2000 UTC launched from the Air Force Western Test Range (AFWTR). Debris objects in space refer to the collection of defunct objects orbiting the Earth. Examples of debris include non-operational satellites, rocket bodies, and fragments generated from explosions, collisions, or faulty payload assembly.

Loading next visibility...
Identifier
41245, 2000-055EV
Orbit
SSO
Country
Flag of USUS
Related business
Manufacturer
Unknown
Mission
Spacecraft
Bus & Motor
Unknown
Mass
Unknown
Launch date (UTC)
2000-09-21 (25 years ago)
Launch vehicle
Unknown
Launch site
Air Force Western Test Range (AFWTR)
Object type
Payload
Rocket body
Debris
Shape & HBR
Unknown shape, 0.1 m
Radar Cross Section
Small (<0.1 m²)

Expand to show TLE details & history
Last TLE update: 13 hours ago

TLE from 13 hours ago
0 NOAA 16 DEB
1 41245U 00055EV  25351.51801704  .00001721  00000-0  83809-3 0  9990
2 41245  98.5334  15.0882 0014297 251.8251 108.1369 14.19358956512839
Epoch: 2025-12-17T12:25Z
TLE epoch observation values (Epoch: 2025-12-17T12:25:56.672Z)
Latitude
-0.00004°
Longitude
102.21534°
Altitude
833.662 km
Speed
7.434 km/s
True Right ascension
01h 00m 21s
True Declination
0° 00' 00"
Sunlit
Object was in daylight at epoch
Visualization orbit readout
Latitude
Unknown
Longitude
Unknown
Altitude
Unknown
Speed
Unknown
Apparent Right ascension
Unknown
Apparent Declination
Unknown
Sunlit
N/A
Visualization observer readout
Local Sidereal Time
23:44:03
Azimuth
Unknown
Elevation
Unknown
Doppler factor
Unknown
Orbital elements
Apogee altitude
834.971 km
Perigee altitude
814.375 km
Semi-major axis
7,202.81 km
Eccentricity
0.00143
Inclination
98.5334°
RAAN
15.0882°
Arg. of periapsis
251.8251°
True anomaly
108.2925°
Mean anomaly
108.1369°
Eccentric anomaly
108.21471°
Mean motion
3.55051 °/min
Orbital period
101.39 mins
BSTAR
0.00083809
Loading maneuver chart data...
Computing Atmospheric mass density...
Loading historical data...
Loading historical data...
Loading historical data...
Loading historical data...
Loading historical data...
Loading historical data...
Loading historical data...

Documentation

Showing up to 5 results
|